Regional Weather Roundup
Issued by NWS Bismarck, ND

Home | Current Version | Previous Version | Text Only | Print | Product List | Glossary On
Versions: 1 2 3 4 5 6 7 8 9 10 11 12 13 14 15 16 17 18 19 20 21 22 23 24 25 26 27 28 29 30 31 32 33 34 35 36 37 38 39 40 41 42 43 44 45 46 47 48 49 50
000
ASUS43 KBIS 291210
RWRBIS

NWR BROADCAST TEXT
NATIONAL WEATHER SERVICE BISMARCK ND
700 AM CDT WED MAR 29 2017

NOTE: "FAIR" INDICATES FEW OR NO CLOUDS BELOW 12,000 FEET WITH NO
SIGNIFICANT WEATHER AND/OR OBSTRUCTIONS TO VISIBILITY.


CITY           SKY/WX    TMP DP  RH WIND       PRES   REMARKS
WILLISTON      FOG       32  32 100 SW5       30.06S VSB 1/4
MINOT          MOCLDY    45  41  86 SW9       30.06S
MINOT AFB      CLOUDY    38  37  99 SW3       30.05S
BISMARCK       FAIR      35  34  96 E5        30.14S
DICKINSON      FOG       38  38 100 S12       30.06S VSB 1/2
GARRISON         N/A     38  36  92 CALM      30.09R
HETTINGER ARPT FOG       36  35  96 CALM      30.12S VSB 1/4
JAMESTOWN      FOG       32  32 100 CALM      30.15S VSB 1/4
HAZEN          CLOUDY    41  39  93 S12       30.11S
LINTON           N/A     37  37 100 SE6       30.17R
MANDAN         PTSUNNY   36  36 100 S7        30.14R FOG
STANLEY        FOG       32  32 100 CALM      30.08F VSB<1/4
TIOGA          FOG       30  30 100 CALM      30.07S VSB<1/4
WATFORD CITY   FOG       30  30 100 CALM      30.06S VSB 1/4
$$

CITY           SKY/WX    TMP DP  RH WIND       PRES   REMARKS
GRAND FORKS    MOCLDY    33  31  92 CALM      30.17S
GRAND FORKS AF FAIR      30  30 100 SW3       30.17R
DEVILS LAKE    CLOUDY    36  35  96 S6        30.15S
FARGO          FAIR      37  33  85 SE6       30.16F
CAVALIER       FAIR      30  30 100 S3        30.15F FOG
GRAFTON        FAIR      32  32 100 SE6       30.19S
GWINNER        FOG       37  37 100 MISG      30.16S VSB 1/4
LANGDON        FAIR      37  34  87 S13       30.13S
ROLLA          PTSUNNY   34  34 100 S10       30.10S
$$

CITY           SKY/WX    TMP DP  RH WIND       PRES   REMARKS
ABERDEEN       FAIR      35  31  85 N3        30.16R
MOBRIDGE       CLOUDY    43  38  82 CALM      30.13R
BUFFALO          N/A     41  40  96 SW6       30.04S
RAPID CITY     CLOUDY    39  37  92 CALM      30.11S
GLASGOW        CLOUDY    40  28  62 CALM      30.01R
SIDNEY         FOG       30  29  96 CALM      30.06F VSB 1/2
WOLF POINT     FAIR      34  31  88 W3        30.03S
GLENDIVE       FAIR      35  33  92 S8        30.07S
MILES CITY     FAIR      34  31  88 S7        30.06S
BAKER          FAIR      31  29  92 SE5       30.08S
$$

CITY           SKY/WX    TMP DP  RH WIND       PRES   REMARKS
BILLINGS       FAIR      39  28  64 SW9       30.08R
GREAT FALLS    FAIR      38  26  62 SW10      30.05S
REGINA         CLOUDY    34  34 100 SE16      29.94F FOG
ESTEVAN        CLOUDY    32  32 100 SE7       30.03F
$$





USA.gov is the U.S. government's official web portal to all federal, state and local government web resources and services.